Location: Dana
(41.8364°N, 106.7042°W)
Time: 19:47:01
(UTC+00:00)

Injun/Solrad 3 - Pass Details

Date: 11 May 2026
Orbit: 867 x 989 km, 66.8° (Epoch: 6 June)

Event Time Altitude Azimuth Distance (km) Brightness Sun altitude
Rises 01:02:49 0° 248° (WSW) 3,520 11.9 11.9°
Reaches altitude 10° 01:05:43 10° 261° (W) 2,603 11.8 11.3°
Maximum altitude 01:10:42 26° 316° (NW) 1,758 10.5 10.4°
Drops below altitude 10° 01:15:49 10° 11° (NNE) 2,684 10.4 9.5°
Sets 01:18:54 0° 24° (NNE) 3,653 10.9 9.0°
